www.pogodaiklimat.ru

Погода и климат >> Архив погоды >> Малайзия >> Kota Kinabalu


ПОГОДА в Kota Kinabalu

  • Прогноз погоды в Kota Kinabalu
  • Монитор погоды в Kota Kinabalu
  • Климат города

АРХИВ ПОГОДЫ в Kota Kinabalu

Время (UTC), дата Ветер
(напр.,м/с)
 
Видим.   Явления Облачность Т
(С)
Тd
(С)
f
(%)
Тe
(С)
Тes
(С)
Комфортность P
(гПа)
Po
(гПа)
Тmin
(С)
Tmax
(С)
R
(мм)
R24
(мм)
S
(см)
21 18.04 В 2 18 км 9/3 420 м
[Cu Sc Ac lent Cs]
+25.1 +23.5 91 +34 +34 очень
душно
1008.7 1008.4
00 19.04 ЮВ 2 27 км 9/3 420 м
[Cb cap Ac trans Cs]
+28.0 +23.5 77 +38 +40 очень
душно
1010.3 1010.0 +24.9
03 19.04 СЗ 2 27 км 9/1 450 м
[Cu Sc Ac trans Ci sp]
+32.3 +25.4 67 +47 +57 опасность
перегрева
1010.2 1009.9
06 19.04 СЗ 2 20 км гроза без осадков 9/5 420 м
[Cb cap Ac lent Cs]
+32.7 +26.9 72 +51 +56 опасность
перегрева
1007.7 1007.4
09 19.04 ЮВ 3 22 км в посл. час гроза 9/5 420 м
[Cb cap Ac lent Cs]
+27.1 +23.5 81 +37 +38 очень
душно
1007.7 1007.4
12 19.04 ЮВ 2 18 км {гроза} 9/4 420 м
[Cu Sc Ac lent Cs]
+26.8 +24.7 88 +38 +38 очень
душно
1008.8 1008.5 +33.7
15 19.04 В 3 18 км 9/3 420 м
[Cu Sc Ac lent Cs]
+26.1 +23.4 85 +35 +35 очень
душно
1009.5 1009.2
18 19.04 В 2 18 км 9/3 420 м
[Cu Sc Ac lent Cs]
+25.2 +23.2 89 +34 +34 очень
душно
1008.3 1008.0
21 19.04 В 2 18 км 9/1 420 м
[Cu Sc Ac lent Cs]
+24.8 +23.2 91 +33 +33 очень
душно
1008.5 1008.2
00 20.04 ЮВ 2 30 км 9/1 420 м
[Cu Sc Ac lent Ci sp]
+28.2 +23.1 74 +38 +40 очень
душно
1009.8 1009.5 +24.6
03 20.04 СЗ 2 28 км 9/1 450 м
[Cu Sc Ac lent Ci sp]
+32.3 +25.8 69 +48 +58 опасность
перегрева
1010.0 1009.7
06 20.04 СЗ 3 12 км слабый дождь 9/8 420 м
[Cb cap Ac lent Cs]
+30.8 +26.1 76 +46 +49 опасность
перегрева
1008.0 1007.7 0.0
09 20.04 В 3 15 км гроза, ливневой дождь 9/8 420 м
[Cb cap Ac lent Cs]
+27.6 +25.4 88 +40 +41 очень
душно
1007.6 1007.3
12 20.04 ЮВ 2 18 км {гроза, дождь} 9/4 420 м
[Cu Sc Ac lent Cs]
+26.7 +24.9 90 +38 +38 очень
душно
1008.8 1008.5 +34.0 1
15 20.04 Ю 3 18 км 9/4 420 м
[Cu Sc Ac lent Cs]
+26.4 +24.0 87 +37 +37 очень
душно
1010.3 1010.0
18 20.04 ЮВ 2 18 км 9/4 420 м
[Cu Sc Ac lent Cs]
+25.4 +23.5 89 +34 +34 очень
душно
1008.7 1008.4
21 20.04 ЮВ 2 18 км 9/4 420 м
[Cu Sc Ac lent Cs]
+24.5 +23.0 91 +32 +32 очень
душно
1008.2 1007.9
00 21.04 В 3 27 км 9/1 450 м
[Cu Sc Ac lent Ci sp]
+28.4 +23.8 76 +39 +41 очень
душно
1009.1 1008.8 +24.4 1
03 21.04 З 2 28 км 9/1 450 м
[Cu Sc Ac lent Ci sp]
+32.2 +26.0 70 +48 +59 опасность
перегрева
1010.0 1009.7
06 21.04 СЗ 2 15 км гроза без осадков 9/4 420 м
[Cb cap Ac lent Cs]
+31.5 +26.1 73 +47 +53 опасность
перегрева
1007.7 1007.4
09 21.04 В 3 12 км гроза, ливневой дождь 9/5 420 м
[Cb cap Ac lent Cs]
+27.2 +25.7 92 +40 +41 очень
душно
1007.5 1007.2
12 21.04 В 1 18 км в посл. час дождь {гроза} 9/6 420 м
[Cb cap Ac lent Cs]
+26.5 +24.8 90 +38 +38 очень
душно
1008.9 1008.6 +33.6 2
15 21.04 Ю 3 18 км 9/4 420 м
[Cu Sc Ac lent Cs]
+25.8 +24.2 91 +36 +36 очень
душно
1010.5 1010.2
18 21.04 Ю 2 18 км зарница 9/5 420 м
[Cb cap Ac lent Cs]
+25.7 +24.0 90 +35 +35 очень
душно
1009.5 1009.2
21 21.04 В 2 18 км зарница 9/5 420 м
[Cb cap Ac lent Cs]
+24.9 +23.8 94 +34 +34 очень
душно
1008.9 1008.6
00 22.04 В 2 25 км 9/1 450 м
[Cu Sc Ac trans Ci sp]
+28.1 +24.2 79 +39 +41 очень
душно
1010.2 1009.9 +24.7 2
03 22.04 СЗ 3 25 км 9/1 450 м
[Cu Sc Ac trans Ci sp]
+31.8 +25.4 69 +46 +55 опасность
перегрева
1009.3 1009.0
06 22.04 СЗ 3 25 км 9/4 420 м
[Cb cap Ac lent Ci sp]
+32.9 +26.5 69 +50 +55 опасность
перегрева
1007.2 1006.9
09 22.04 штиль 0 10 км гроза, ливневой дождь 9/5 420 м
[Cb cap Ac lent Cs]
+30.1 +26.3 80 +46 +47 опасность
перегрева
1007.0 1006.7
12 22.04 В 2 15 км в посл. час дождь {гроза} 9/5 420 м
[Cu Sc Ac lent Cs]
+27.3 +25.8 92 +41 +41 опасность
перегрева
1008.0 1007.7 +33.3 1
15 22.04 ЮВ 2 18 км {дождь} 9/3 420 м
[Cu Sc Ac lent Cs]
+26.4 +24.9 91 +38 +38 очень
душно
1008.9 1008.6
18 22.04 В 2 18 км зарница {дождь} 9/3 420 м
[Cb cap Ac lent Cs]
+25.8 +24.2 91 +36 +36 очень
душно
1007.4 1007.1 0.0
21 22.04 В 2 18 км гроза без осадков 9/3 420 м
[Cb cap Ac lent Cs]
+25.8 +24.1 90 +36 +36 очень
душно
1007.2 1006.9
00 23.04 ЮВ 2 25 км 9/4 420 м
[Cb cap Ac lent Ci sp]
+28.5 +24.6 79 +40 +42 очень
душно
1008.8 1008.5 +25.4 1
03 23.04 СЗ 2 25 км 9/3 420 м
[Cu Sc Ac lent Ci sp]
+32.8 +27.0 72 +51 +59 опасность
перегрева
1008.6 1008.3
06 23.04 СЗ 2 15 км осадки на расстоянии 9/5 420 м
[Cb cap Ac lent Cs]
+33.0 +27.2 72 +52 +57 опасность
перегрева
1006.3 1006.0 0.2
09 23.04 В 4 7000 м гроза, ливневой дождь 10/6 420 м
[Cb cap Ac lent Cs]
+26.7 +25.4 93 +39 +39 очень
душно
1006.0 1005.7
12 23.04 В 2 18 км зарница {гроза, дождь} 9/5 420 м
[Cb cap Ac lent Cs]
+26.7 +25.3 92 +39 +39 очень
душно
1007.8 1007.5 +34.2 4
15 23.04 В 2 18 км гроза без осадков 9/4 420 м
[Cb cap Ac lent Cs]
+25.9 +24.2 90 +36 +36 очень
душно
1008.8 1008.5
18 23.04 ЮВ 2 18 км {гроза} 9/3 420 м
[Cu Sc Ac lent Cs]
+25.5 +23.7 90 +35 +35 очень
душно
1007.2 1006.9
21 23.04 В 1 18 км зарница 9/3 420 м
[Cb cap Ac lent Cs]
+25.3 +23.7 91 +34 +34 очень
душно
1007.4 1007.1
00 24.04 Ю 3 24 км 9/3 420 м
[Cb cap Ac lent Cs]
+28.3 +25.1 83 +41 +43 опасность
перегрева
1009.9 1009.6 +24.9 4
03 24.04 ЮЗ 2 24 км 8/3 420 м
[Cb cap Ac trans Ci sp]
+32.6 +26.9 72 +50 +60 опасность
перегрева
1009.5 1009.2
06 24.04 З 2 15 км осадки на расстоянии 9/5 420 м
[Cb cap Ac lent Cs]
+33.9 +27.2 68 +52 +58 опасность
перегрева
1006.8 1006.5
09 24.04 З 1 15 км осадки на расстоянии 9/5 420 м
[Cb cap Ac lent Cs]
+32.2 +27.0 74 +50 +51 опасность
перегрева
1006.2 1005.9
12 24.04 В 2 18 км в посл. час гроза 9/4 420 м
[Cb cap Ac lent Cs]
+27.1 +25.3 90 +39 +39 очень
душно
1008.8 1008.5 +34.6
15 24.04 штиль 0 18 км {дождь} 9/3 420 м
[Cu Sc Ac lent Cs]
+26.4 +24.7 90 +37 +37 очень
душно
1010.3 1010.0
18 24.04 В 2 18 км 9/3 420 м
[Cu Sc Ac lent Cs]
+26.0 +23.9 88 +36 +36 очень
душно
1008.8 1008.5 0.4
21 24.04 В 2 18 км 9/4 420 м
[Cu Sc Ac lent Cs]
+25.5 +23.7 90 +35 +35 очень
душно
1008.7 1008.4
00 25.04 ЮВ 2 26 км 9/3 420 м
[Cu Sc Ac lent Cs]
+28.9 +23.6 73 +39 +41 очень
душно
1010.6 1010.3 +25.4 0.4
03 25.04 З 1 26 км 9/4 420 м
[Cu Sc Ac lent Ci sp]
+32.4 +26.2 70 +49 +57 опасность
перегрева
1010.2 1009.9
06 25.04 З 2 20 км осадки на расстоянии 9/3 420 м
[Cb cap Ac lent Ci sp]
+33.8 +27.3 69 +53 +60 опасность
перегрева
1007.1 1006.8
09 25.04 СЗ 1 16 км гроза без осадков 9/3 420 м
[Cb cap Ac lent Cs]
+32.4 +26.5 71 +49 +50 опасность
перегрева
1007.4 1007.1
12 25.04 В 3 18 км {гроза} 9/3 420 м
[Cu Sc Ac lent Cs]
+27.5 +25.1 87 +40 +40 очень
душно
1009.3 1009.0 +34.3
15 25.04 В 2 18 км 9/3 420 м
[Cu Sc Ac lent Cs]
+26.7 +24.6 88 +38 +38 очень
душно
1010.2 1009.9
18 25.04 В 3 18 км зарница 9/3 420 м
[Cb cap Ac lent Cs]
+26.3 +24.2 88 +37 +37 очень
душно
1009.3 1009.0

 

Местоположение метеостанции Kota Kinabalu (Малайзия): широта 5.93 долгота 116.05 высота над уровнем моря 3 м.

В архиве по умолчанию представлена погода в Kota Kinabalu за последнюю неделю. Архивные данные за месяц целиком и за предыдущие месяцы, начиная с января 2011 года, Вы можете получить, выбрав интересующий диапазон дат из раскрывающегося списка и нажав кнопку "Ввод!".


*Определитесь, кто Вы:
робот инопланетянин человек

Внимание! Время в таблицах - всемирное. Для получения местного времени необходимо прибавить поправку, которая в Kota Kinabalu равна 8 ч.

Смотрите также архив погоды в соседних городах и на ближайших метеорологических станциях:

Погода в Labuan (Малайзия) (113 км)
Погода в Brunei Airport (Бруней) (167 км)
Погода в Sandakan (Малайзия) (222 км)
Погода в Longbawan (Индонезия) (248 км)
Погода в Tawau (Малайзия) (274 км)
Погода в Miri (Малайзия) (290 км)
Погода в Tarakan (Индонезия) (334 км)
Погода в Tanjung Selor (Индонезия) (371 км)
Погода в Tanjung Redep (Индонезия) (451 км)
Погода в Bintulu (Малайзия) (452 км)

Пояснения к столбцам:

Ветер - указаны скорость ветра в м/с - средняя за 10 мин, порывы в срок и между сроками (в фигурных скобках) и направление, откуда дует ветер: С - северный, СВ - северо-восточный, В - восточный, ЮВ - юго-восточный, Ю - южный, ЮЗ - юго-западный, З - западный, СЗ - северо-западный.
Видимость - горизонтальная дальность видимости в метрах или километрах. При видимости от 1 до 10 км при отсутствии осадков обычно наблюдается дымка, при ухудшении видимости до 1 км и менее - туман. В сухую погоду видимость может ухудшаться дымом, пылью или мглою.
Явления - указаны атмосферные явления, наблюдавшиеся в срок или в последний час перед сроком; фигурными скобками обозначены явления, наблюдавшиеся между сроками (за 1-3 часа до срока); квадратными скобками обозначены град или гололедные отложения с указанием их диаметра в мм.
Облачность - указаны через наклонную черту общая и нижняя облачность в баллах и высота нижней границы облаков в метрах; квадратными скобками обозначены формы облаков: Ci - перистые, Cs - перисто-слоистые, Cc - перисто-кучевые, Ac - высококучевые, As - высокослоистые, Sc - слоисто-кучевые, Ns - слоисто-дождевые, Cu - кучевые, Cb - кучево-дождевые. Подробнее классификацию облаков см. в Атласе облаков (PDF).
T - Температура воздуха - температура, измеренная на высоте 2 м над землей.
Td - Температура точки росы - температура, при понижении до которой содержащийся в воздухе водяной пар достигнет насыщения.
f - Относительная влажность воздуха - влажноcть воздуха, измеренная на высоте 2 м над землей.
Te - Эффективная температура - температура, которую ощущает одетый по сезону человек в тени. Характеристика душности погоды. При расчете учитывается влияние влажности воздуха и скорости ветра на теплоощущения человека.
Tes - Эффективная температура на солнце - температура, которую ощущает человек, с поправкой на солнечный нагрев. Характеристика знойности погоды. Зависит от высоты солнца над горизонтом, облачности и скорости ветра. Ночью, в пасмурную погоду, а также при ветре 12 м/с и более поправка равна нулю.
P - Атмосферное давление - приведенное к уровню моря атмосферное давление.
Po - Атмосферное давление - измеренное на уровне метеостанции атмосферное давление.
Tmin - Минимальная температура - минимум температуры воздуха на высоте 2 м над землей.
Tmax - Максимальная температура - максимум температуры воздуха на высоте 2 м над землей.
R - Количество осадков - Количество выпавших осадков за период времени, мм. При наведении курсора мыши на число - период времени, за который выпало указанное количество осадков.
R24 - Количество осадков - Количество выпавших осадков за 24 часа, мм.
S - Снежный покров - Высота снежного покрова, см. При наведении курсора мыши на число - состояние снежного покрова и степень покрытия местности в баллах.